Dewpoint
-12 -9 -2 -7 -9 -11 -10 -11 -11 -10 -14 -15 -12 -7 -9 -13 -15 -15 -15 -15 -14 -15 -17 -18 -20 -21 -22 -23 -24 -24 -25 -27 -27 -29 -30 -29 -27 -25 -25 -24 -23 -23 -23 -23
-13 -11 -15 -16 -16 -13 -11 -12 -13 -16 -15 -16 -15 -11 -7 -11 -13 -14 -13 -13 -13 -15 -17 -19 -20 -22 -23 -25 -27 -30 -32 -32 -32 -31 -30 -29 -28 -27 -25 -24 -23 -22 -22 -21
-13 -16 -20 -18 -17 -14 -15 -11 -15 -12 -14 -14 -15 -12 -5 -8 -9 -12 -11 -12 -13 -16 -18 -20 -22 -23 -25 -30 -35 -36 -37 -38 -38 -38 -37 -36 -35 -33 -29 -27 -24 -23 -21 -21
-13 -17 -20 -19 -16 -15 -16 -15 -14 -14 -12 -12 -15 -9 -8 -8 -8 -9 -10 -10 -13 -16 -18 -21 -23 -26 -32 -36 -40 -40 -41 -41 -41 -41 -41 -42 -41 -41 -39 -37 -32 -26 -22 -21
-13 -15 -20 -17 -17 -14 -13 -14 -14 -13 -13 -12 -12 -10 -9 -7 -7 -9 -10 -12 -14 -15 -18 -21 -23 -28 -36 -40 -40 -39 -37 -37 -37 -38 -39 -40 -41 -41 -41 -41 -41 -39 -29 -22
-15 -17 -17 -16 -16 -13 -12 -14 -13 -12 -9 -7 -11 -13 -7 -6 -8 -11 -11 -12 -14 -16 -18 -21 -23 -33 -38 -39 -36 -36 -35 -34 -35 -35 -36 -37 -38 -39 -40 -41 -41 -41 -40 -30
-15 -16 -16 -17 -14 -14 -13 -10 -5 -6 -5 -8 -7 -10 -7 -9 -10 -12 -12 -13 -15 -16 -19 -22 -29 -32 -39 -36 -35 -34 -33 -33 -32 -32 -33 -34 -34 -35 -37 -38 -40 -41 -41 -36
-10 -10 -14 -16 -15 -13 -11 -10 -4 -7 -2 -4 -8 -7 -7 -13 -13 -12 -14 -15 -16 -17 -20 -22 -28 -36 -36 -35 -33 -32 -31 -30 -30 -30 -30 -30 -31 -31 -33 -34 -37 -39 -40 -38
-8 -11 -14 -14 -14 -13 -13 -11 -8 -6 -7 -8 -9 -11 -11 -11 -11 -13 -14 -15 -16 -18 -20 -25 -32 -37 -35 -33 -31 -30 -29 -28 -27 -27 -27 -28 -28 -29 -30 -31 -33 -36 -39 -39
-6 -8 -13 -13 -14 -14 -9 -11 -9 -7 -9 -7 -8 -9 -10 -8 -10 -11 -13 -15 -16 -17 -20 -27 -35 -35 -33 -31 -30 -28 -27 -26 -25 -26 -25 -25 -26 -27 -28 -28 -29 -31 -35 -39
-15 -8 -10 -13 -12 -12 -11 -6 -6 -5 -3 -4 -6 -7 -9 -10 -9 -10 -12 -15 -16 -19 -20 -29 -35 -34 -32 -30 -28 -27 -26 -25 -25 -24 -24 -24 -24 -25 -26 -26 -27 -28 -30 -34
-15 -6 -9 -11 -15 -15 -13 -7 -6 -6 -6 -5 -6 -9 -11 -10 -9 -11 -12 -15 -18 -19 -23 -31 -36 -33 -30 -29 -28 -26 -25 -25 -25 -24 -24 -25 -24 -24 -24 -24 -25 -26 -27 -29
-10 -8 -9 -11 -11 -13 -12 -10 -6 -7 -7 -7 -8 -10 -9 -10 -10 -10 -13 -16 -17 -19 -24 -30 -34 -32 -30 -28 -27 -26 -25 -25 -25 -25 -25 -25 -25 -25 -25 -25 -24 -24 -25 -27
-11 -9 -9 -5 -7 -11 -10 -11 -11 -9 -6 -9 -12 -12 -10 -10 -9 -10 -13 -15 -17 -22 -28 -33 -34 -32 -30 -28 -27 -26 -25 -25 -25 -25 -24 -24 -24 -24 -24 -24 -24 -24 -24 -24
-8 -11 -9 -9 -9 -9 -9 -10 -11 -9 -9 -9 -9 -10 -11 -9 -10 -13 -15 -15 -17 -23 -27 -31 -32 -32 -29 -28 -27 -25 -25 -24 -24 -24 -24 -23 -23 -23 -23 -23 -23 -23 -23 -24
-9 -6 -10 -11 -10 -8 -9 -10 -10 -10 -10 -8 -8 -8 -10 -13 -15 -15 -15 -16 -17 -18 -21 -26 -31 -31 -30 -28 -26 -25 -24 -23 -23 -23 -23 -23 -23 -23 -22 -22 -22 -22 -22 -23
-9 -7 -8 -6 -13 -13 -11 -13 -11 -13 -12 -10 -8 -10 -12 -13 -13 -13 -13 -14 -13 -14 -15 -15 -18 -27 -29 -26 -25 -25 -24 -23 -23 -23 -22 -23 -23 -23 -22 -22 -22 -22 -22 -22
-9 -8 -7 -7 -9 -6 -11 -15 -14 -12 -12 -13 -12 -15 -19 -16 -14 -18 -18 -17 -16 -17 -15 -15 -15 -19 -21 -21 -25 -26 -25 -24 -23 -23 -23 -23 -23 -23 -22 -22 -21 -21 -21 -21
-11 -7 -7 -6 -7 -10 -13 -16 -15 -14 -15 -18 -18 -19 -18 -15 -17 -20 -25 -27 -18 -14 -14 -14 -15 -16 -17 -21 -26 -26 -25 -24 -23 -23 -24 -24 -23 -23 -22 -22 -21 -21 -20 -21
-12 -11 -7 -8 -7 -7 -13 -16 -17 -18 -16 -18 -19 -19 -19 -16 -15 -16 -21 -26 -28 -25 -20 -21 -21 -23 -27 -28 -26 -25 -24 -24 -24 -24 -24 -24 -23 -21 -20 -20 -20 -19 -20 -20
-12 -10 -9 -8 -7 -9 -14 -17 -18 -14 -12 -18 -18 -19 -20 -18 -18 -18 -18 -20 -21 -23 -25 -26 -26 -26 -25 -25 -24 -23 -23 -22 -21 -22 -21 -21 -20 -19 -19 -19 -19 -19 -19 -20
-12 -10 -10 -9 -8 -9 -17 -20 -16 -18 -19 -19 -18 -18 -18 -19 -19 -18 -19 -19 -20 -21 -22 -22 -22 -22 -22 -21 -21 -21 -20 -20 -20 -19 -19 -19 -19 -20 -20 -21 -20 -20 -20 -20
-9 -9 -10 -10 -11 -17 -18 -18 -20 -20 -19 -18 -18 -18 -18 -18 -18 -18 -18 -19 -19 -19 -20 -20 -21 -21 -20 -20 -21 -22 -23 -24 -26 -27 -28 -28 -28 -29 -29 -28 -27 -26 -23 -21
-13 -17 -10 -10 -15 -17 -17 -17 -18 -18 -18 -18 -18 -19 -19 -19 -19 -19 -20 -20 -20 -21 -22 -23 -22 -22 -25 -27 -28 -29 -30 -30 -29 -30 -30 -30 -30 -30 -29 -29 -29 -27 -25 -21
-15 -17 -12 -13 -17 -17 -18 -19 -19 -18 -18 -19 -19 -19 -19 -19 -20 -20 -21 -23 -25 -25 -23 -23 -26 -28 -29 -29 -29 -29 -28 -27 -28 -28 -28 -28 -28 -28 -28 -28 -28 -25 -21 -20
-19 -16 -12 -11 -18 -17 -18 -19 -19 -19 -20 -20 -20 -20 -21 -22 -22 -24 -25 -26 -26 -22 -24 -27 -28 -28 -28 -27 -27 -27 -27 -27 -27 -26 -25 -25 -25 -25 -25 -26 -27 -29 -22 -21
Wind_Speed
2 5 4 3 3 4 2 1 4 2 2 2 7 4 11 23 18 17 16 14 12 9 5 2 1 3 7 10 14 17 18 20 21 22 23 23 24 26 26 26 26 25 25 26
6 2 1 3 3 3 3 3 3 3 3 1 4 9 8 21 19 29 25 21 18 12 8 6 3 3 8 12 14 16 18 19 21 22 22 23 23 23 23 24 24 25 25 25
4 2 2 2 3 4 3 2 2 3 3 3 4 7 3 5 6 24 23 22 18 14 11 8 3 3 8 11 13 14 15 17 18 19 20 20 20 21 22 23 24 26 27 27
5 2 2 2 2 2 2 2 4 3 3 3 2 6 5 5 11 15 26 26 23 19 14 9 3 4 8 9 10 11 13 15 17 18 19 20 22 24 25 26 27 26 26 26
2 5 2 2 1 2 4 4 3 2 2 5 2 1 6 7 10 14 22 29 25 20 14 9 4 6 6 6 8 10 12 13 15 16 17 19 21 22 23 24 25 26 25 25
2 0 1 2 4 4 5 3 2 3 3 2 6 5 4 6 6 5 19 30 27 22 16 10 7 8 6 5 5 7 9 10 12 13 15 18 20 22 24 25 27 27 28 27
2 1 1 6 5 4 2 4 3 3 2 6 4 5 9 6 4 10 22 32 29 22 16 11 8 7 6 4 4 5 6 8 10 12 15 17 20 22 25 27 29 30 31 30
4 4 6 4 3 5 5 5 4 7 4 4 4 7 6 4 6 9 28 33 26 22 17 13 10 9 7 6 4 4 6 8 10 12 14 16 19 22 24 27 29 30 31 31
4 3 2 4 2 1 5 5 3 1 2 2 4 7 5 3 3 8 22 26 27 23 19 14 12 11 9 7 5 5 6 8 9 11 13 15 18 20 23 25 27 29 30 31
2 3 2 1 2 2 1 2 3 1 3 5 6 6 6 6 10 6 12 28 29 24 21 17 16 13 11 9 8 7 6 7 9 11 13 15 17 19 22 24 26 28 29 31
2 2 1 2 8 8 4 3 2 1 3 4 3 6 4 5 12 18 26 34 32 28 24 19 17 15 13 12 11 9 8 8 9 10 12 14 16 18 20 23 25 27 29 31
4 4 4 9 2 3 1 5 6 4 6 2 1 13 1 4 8 19 21 35 31 27 22 20 18 17 17 14 12 10 9 8 9 10 11 13 16 18 20 21 24 26 29 29
3 2 2 4 4 3 4 4 2 4 3 7 6 7 2 5 3 11 21 27 28 26 24 23 23 22 18 15 13 11 9 8 9 10 11 12 15 17 19 22 24 25 28 29
3 1 7 9 3 4 4 6 13 11 5 4 18 20 9 5 5 11 17 24 27 25 23 24 25 23 20 17 15 12 10 10 11 11 12 13 15 18 20 22 24 26 28 30
4 6 3 5 5 6 7 6 15 19 20 13 21 22 14 4 6 16 23 23 24 27 27 26 26 25 21 20 17 14 12 13 13 12 13 15 17 18 20 22 24 26 27 29
0 3 1 5 7 9 16 11 14 19 20 24 25 28 2 10 6 9 14 22 28 33 34 30 27 26 25 22 18 16 15 15 14 14 15 17 18 20 21 23 25 27 28 30
5 4 2 5 4 6 13 16 21 16 15 21 19 17 7 5 6 7 9 11 17 21 24 28 30 26 24 20 17 17 17 17 16 17 17 19 21 22 23 25 26 29 31 31
5 5 2 3 3 5 5 2 3 14 4 5 7 4 3 6 2 7 10 13 17 19 18 16 18 20 19 18 17 17 18 18 20 19 21 21 24 25 26 27 28 30 33 33
3 4 2 3 4 8 9 1 4 5 4 2 2 4 5 7 2 8 14 15 11 10 8 6 7 11 13 14 17 18 19 21 22 23 24 24 25 28 29 30 31 31 35 36
2 3 5 3 4 6 4 3 2 2 4 2 3 5 8 8 2 2 14 11 10 8 7 6 8 10 12 14 17 19 19 21 23 25 27 27 27 29 31 32 33 34 35 38
3 2 11 9 6 7 2 1 1 3 2 2 4 7 10 3 1 8 11 11 11 10 8 7 8 10 12 14 17 18 20 21 22 24 26 27 27 29 31 34 34 36 36 37
7 8 4 5 4 10 5 2 4 3 6 2 3 5 8 7 5 7 9 10 12 13 13 13 13 14 14 16 18 20 22 23 25 28 30 32 33 33 34 36 37 36 36 36
4 6 5 9 4 3 4 6 7 3 3 5 5 5 4 5 5 7 10 11 12 13 15 15 16 17 18 19 20 22 23 26 28 30 31 33 34 34 33 34 35 36 34 33
3 3 3 1 3 3 7 7 5 4 4 2 1 3 5 7 8 10 12 13 14 15 17 17 19 21 21 20 22 23 24 24 26 29 30 30 32 32 31 31 32 33 32 31
1 3 3 1 5 7 4 4 3 3 2 3 4 5 6 9 11 13 15 16 17 17 17 19 21 22 23 23 23 22 23 23 26 28 29 31 32 33 33 32 31 30 28 27
1 1 3 1 5 1 4 3 2 2 3 5 6 8 8 11 13 15 16 16 15 16 19 20 21 22 22 22 22 22 22 22 24 25 27 30 32 32 33 34 34 27 25 24
Wind_Direction
34 73 178 165 160 151 153 201 125 134 139 158 232 225 205 196 200 192 191 204 212 216 218 231 309 5 3 1 0 357 354 352 348 346 342 342 343 343 340 341 342 338 335 331
31 129 156 95 73 117 101 129 103 83 150 160 264 257 212 192 208 200 194 202 213 214 215 221 236 346 353 353 350 346 346 347 348 348 347 344 339 337 335 332 335 339 337 334
136 164 144 81 49 88 47 161 136 157 321 265 303 266 186 227 210 209 208 217 218 213 209 209 207 332 337 338 342 348 349 349 349 347 344 340 335 335 334 334 334 336 338 335
103 227 145 95 74 61 160 85 102 76 62 224 112 281 271 201 204 200 205 210 211 205 207 207 225 327 331 340 349 353 356 356 355 353 351 348 346 342 342 336 334 333 334 335
155 155 161 152 167 100 182 100 91 61 41 31 246 283 270 138 218 211 206 210 205 203 207 209 244 297 311 340 354 357 355 356 356 358 358 357 355 351 346 339 334 330 331 332
107 114 72 111 77 86 134 85 53 58 72 328 224 188 255 194 211 177 195 203 200 200 202 213 248 281 300 332 346 347 351 353 356 359 1 1 360 357 353 349 344 339 334 331
17 263 62 137 94 15 96 77 343 330 338 233 321 175 253 236 232 179 183 194 194 199 202 217 240 251 265 289 315 331 344 352 356 359 360 359 359 358 357 355 350 345 339 334
183 274 172 188 198 169 180 172 179 237 220 268 342 231 255 254 9 199 187 187 190 200 207 221 230 232 242 258 272 305 329 341 346 349 354 354 353 354 354 354 351 348 341 336
161 252 41 45 10 114 186 206 143 58 247 13 243 295 296 358 341 120 165 182 195 201 210 224 229 229 236 243 262 283 309 323 334 341 346 347 348 350 349 350 348 347 344 337
211 343 196 349 25 89 137 164 114 130 259 270 283 277 244 224 213 208 201 198 202 207 215 225 228 229 232 242 253 267 289 307 324 333 337 341 345 346 346 346 345 343 344 340
78 129 319 88 204 181 161 202 170 75 186 216 295 256 213 229 196 202 212 210 209 211 218 225 225 227 233 240 248 262 280 298 315 324 331 336 340 341 343 344 342 341 342 341
200 152 190 209 5 352 292 195 174 187 210 227 171 269 154 294 224 213 216 217 215 217 222 225 225 227 232 237 243 253 269 288 303 314 324 333 334 337 339 339 339 339 339 339
206 221 343 302 351 345 225 202 144 87 43 198 204 257 359 12 355 224 230 220 217 217 222 226 225 229 234 237 242 248 262 278 292 304 316 324 327 333 335 335 336 338 335 337
158 228 201 236 176 134 203 208 201 193 208 189 232 270 263 255 243 239 230 223 218 224 230 232 232 231 235 236 240 246 255 270 282 295 308 313 321 327 330 331 334 334 333 333
153 223 236 253 218 195 211 191 205 213 224 227 259 248 254 245 202 247 244 235 229 236 237 238 239 237 238 239 240 244 253 265 277 291 300 307 315 320 322 325 327 328 330 330
281 251 40 274 227 218 255 222 226 225 230 241 253 265 293 329 306 281 267 253 248 253 252 249 251 245 241 241 242 246 254 263 274 284 294 301 307 312 315 319 321 323 325 327
155 178 144 270 339 315 281 230 211 225 224 226 240 260 38 33 353 345 328 308 288 289 287 280 262 257 249 245 245 252 259 268 278 284 290 295 299 303 307 311 315 318 320 322
159 153 172 286 344 253 275 330 174 223 270 284 294 45 354 314 59 44 1 327 307 295 295 290 276 267 246 245 252 259 268 277 282 286 289 291 295 298 301 304 308 312 314 319
25 167 203 238 227 309 310 245 143 164 271 320 315 342 351 360 240 47 20 14 350 339 323 292 251 237 246 255 261 271 278 282 285 289 289 292 292 294 297 300 303 307 309 313
63 7 204 141 232 249 245 292 291 126 283 342 12 6 350 3 39 286 358 358 8 357 303 291 275 270 269 275 280 284 286 286 288 289 291 293 295 295 296 298 301 304 305 308
135 222 221 221 242 274 276 7 22 108 242 108 26 31 29 74 345 317 329 333 337 334 329 319 304 293 291 290 289 292 293 294 292 292 293 294 295 295 295 296 298 300 302 303
167 171 194 195 225 262 18 51 182 132 98 49 8 344 339 340 337 328 333 333 328 325 323 319 315 308 305 303 301 300 299 299 301 299 297 297 297 297 297 296 296 298 300 300
209 201 185 202 217 65 46 97 110 92 104 64 28 22 351 327 330 318 320 318 320 319 321 321 313 311 311 309 307 302 300 302 300 297 297 298 299 300 300 298 297 297 299 301
224 166 217 144 115 108 128 122 131 134 127 146 326 324 324 324 314 306 307 312 313 317 319 316 315 313 315 314 309 308 310 309 306 306 307 306 305 307 305 302 300 300 299 300
180 149 188 152 122 118 143 153 161 181 231 270 285 312 305 299 302 306 308 313 319 319 316 318 318 317 317 317 317 319 318 316 312 310 312 314 312 311 311 308 305 304 300 301
128 136 193 268 121 105 145 175 183 239 313 325 317 319 308 302 305 307 311 316 321 317 318 317 318 317 319 320 321 325 320 315 316 319 323 322 319 317 314 311 308 302 296 292
Height
1532 1540 1543 1543 1542 1541 1542 1542 1549 1553 1552 1554 1556 1561 1560 1561 1564 1565 1565 1567 1569 1570 1570 1570 1570 1570 1569 1568 1566 1564 1562 1560 1557 1554 1552 1551 1549 1546 1545 1542 1540 1538 1536 1534
1540 1547 1545 1543 1542 1542 1543 1545 1550 1553 1554 1556 1553 1552 1552 1554 1553 1554 1557 1561 1564 1565 1566 1567 1567 1566 1565 1565 1564 1563 1560 1557 1554 1552 1551 1550 1548 1546 1544 1541 1539 1536 1534 1531
1544 1547 1545 1545 1545 1547 1549 1548 1551 1555 1555 1552 1553 1547 1550 1550 1551 1552 1553 1555 1558 1561 1563 1563 1563 1563 1563 1563 1561 1560 1558 1556 1553 1551 1550 1549 1547 1544 1541 1538 1536 1533 1531 1528
1547 1547 1546 1547 1551 1553 1554 1555 1555 1555 1563 1557 1552 1550 1546 1547 1547 1548 1548 1549 1552 1555 1558 1559 1559 1559 1559 1560 1559 1557 1555 1553 1552 1550 1548 1545 1543 1540 1537 1534 1532 1529 1527 1525
1544 1548 1548 1548 1550 1553 1558 1558 1559 1560 1563 1567 1558 1565 1536 1544 1544 1540 1542 1545 1547 1550 1552 1554 1555 1555 1557 1557 1556 1554 1553 1552 1550 1548 1546 1544 1541 1539 1535 1532 1529 1526 1524 1521
1547 1546 1548 1550 1553 1553 1557 1560 1560 1563 1570 1587 1555 1551 1537 1536 1527 1531 1535 1539 1543 1546 1548 1549 1550 1552 1553 1553 1553 1553 1552 1551 1549 1547 1544 1541 1539 1536 1532 1528 1524 1521 1519 1516
1551 1551 1550 1550 1556 1557 1557 1564 1573 1568 1581 1554 1556 1559 1526 1520 1519 1516 1525 1533 1538 1542 1544 1544 1546 1549 1550 1550 1550 1550 1549 1548 1546 1543 1541 1538 1536 1533 1529 1524 1520 1517 1514 1511
1551 1543 1552 1550 1550 1551 1557 1558 1558 1549 1563 1555 1562 1550 1517 1524 1519 1516 1520 1527 1535 1537 1539 1541 1543 1545 1547 1547 1546 1546 1546 1545 1543 1541 1539 1536 1533 1529 1526 1522 1518 1515 1511 1507
1551 1544 1550 1550 1549 1552 1554 1555 1556 1564 1566 1574 1556 1540 1523 1524 1524 1522 1523 1527 1529 1532 1535 1537 1540 1541 1543 1543 1543 1543 1542 1541 1540 1538 1536 1534 1530 1527 1524 1521 1517 1513 1509 1504
1540 1552 1550 1552 1551 1552 1550 1553 1557 1561 1550 1567 1555 1552 1510 1525 1522 1524 1524 1522 1524 1528 1531 1533 1535 1537 1538 1539 1539 1539 1538 1537 1536 1534 1532 1529 1526 1524 1521 1518 1514 1511 1507 1502
1538 1542 1557 1553 1550 1542 1553 1553 1555 1554 1555 1545 1551 1517 1510 1510 1510 1512 1511 1515 1518 1522 1526 1528 1531 1532 1534 1535 1535 1534 1533 1533 1532 1530 1528 1525 1523 1521 1518 1514 1511 1507 1503 1498
1536 1544 1558 1548 1546 1545 1544 1544 1545 1538 1539 1552 1555 1499 1509 1509 1506 1509 1508 1510 1515 1519 1521 1524 1526 1528 1529 1530 1530 1530 1529 1528 1527 1526 1524 1521 1519 1517 1514 1511 1508 1502 1499 1495
1540 1546 1554 1541 1552 1547 1547 1542 1542 1548 1551 1545 1539 1503 1508 1507 1507 1508 1508 1509 1512 1515 1517 1519 1520 1522 1523 1525 1525 1525 1524 1523 1523 1521 1519 1517 1516 1513 1510 1507 1504 1499 1495 1491
1539 1553 1539 1516 1527 1540 1546 1532 1530 1532 1540 1531 1507 1497 1500 1508 1509 1509 1508 1508 1510 1512 1513 1514 1516 1517 1518 1519 1520 1520 1520 1519 1518 1516 1514 1513 1512 1509 1506 1503 1499 1495 1492 1487
1537 1544 1541 1533 1528 1529 1529 1527 1526 1524 1516 1515 1489 1493 1494 1499 1506 1507 1507 1508 1510 1509 1509 1509 1510 1511 1513 1514 1515 1515 1515 1514 1513 1511 1510 1509 1506 1504 1501 1498 1495 1491 1488 1483
1537 1535 1539 1534 1524 1523 1518 1522 1517 1512 1507 1502 1496 1489 1495 1497 1500 1502 1503 1504 1504 1504 1504 1505 1506 1506 1507 1509 1510 1509 1510 1509 1507 1505 1505 1503 1501 1499 1497 1493 1489 1486 1482 1477
1538 1538 1541 1527 1533 1530 1513 1500 1501 1495 1492 1492 1497 1486 1498 1500 1500 1502 1502 1502 1502 1501 1501 1500 1501 1501 1503 1504 1504 1504 1505 1504 1502 1500 1499 1498 1495 1493 1491 1487 1483 1479 1475 1470
1533 1536 1535 1533 1531 1523 1488 1494 1492 1492 1491 1497 1493 1499 1503 1503 1502 1502 1500 1499 1498 1496 1495 1494 1494 1496 1498 1499 1499 1499 1499 1498 1496 1495 1493 1491 1488 1486 1483 1480 1476 1472 1468 1463
1529 1529 1531 1528 1529 1504 1489 1495 1498 1495 1495 1505 1503 1500 1500 1498 1499 1500 1499 1498 1497 1495 1493 1492 1492 1493 1494 1494 1494 1494 1494 1492 1490 1489 1486 1484 1481 1478 1475 1472 1469 1465 1460 1455
1532 1530 1524 1531 1525 1516 1499 1497 1496 1495 1501 1504 1502 1500 1499 1496 1499 1501 1500 1498 1497 1496 1494 1493 1492 1491 1491 1490 1490 1489 1488 1486 1484 1481 1478 1476 1474 1470 1467 1464 1460 1456 1452 1446
1531 1531 1523 1519 1513 1501 1496 1495 1496 1499 1499 1504 1503 1502 1500 1500 1503 1501 1499 1497 1496 1494 1493 1491 1489 1488 1487 1486 1484 1483 1481 1479 1476 1473 1471 1468 1466 1463 1459 1455 1452 1448 1443 1438
1515 1518 1522 1518 1517 1503 1496 1498 1499 1502 1502 1503 1502 1501 1500 1501 1500 1499 1497 1495 1493 1491 1489 1487 1485 1484 1483 1481 1479 1476 1474 1472 1469 1466 1463 1460 1457 1454 1451 1446 1442 1438 1434 1429
1504 1496 1502 1499 1491 1497 1498 1499 1500 1502 1502 1501 1501 1500 1499 1499 1498 1497 1495 1494 1491 1489 1486 1484 1482 1480 1479 1477 1475 1471 1468 1466 1462 1458 1455 1452 1448 1445 1442 1437 1433 1428 1425 1421
1494 1493 1494 1493 1498 1498 1499 1500 1501 1502 1501 1500 1499 1499 1499 1498 1496 1495 1493 1491 1488 1485 1483 1481 1479 1476 1474 1471 1469 1466 1462 1458 1454 1450 1447 1443 1439 1435 1433 1430 1425 1420 1417 1413
1491 1492 1489 1492 1497 1499 1500 1500 1501 1501 1500 1499 1498 1497 1496 1495 1494 1492 1489 1487 1484 1482 1479 1477 1474 1471 1468 1465 1462 1459 1455 1451 1447 1444 1440 1436 1431 1427 1423 1421 1417 1413 1409 1407
1490 1488 1486 1482 1494 1495 1497 1499 1500 1499 1498 1497 1495 1495 1494 1492 1491 1488 1485 1483 1481 1478 1475 1472 1470 1466 1463 1460 1456 1453 1450 1446 1442 1438 1434 1430 1425 1421 1416 1411 1406 1406 1403 1401